This is the latest recevied weather packets stored in our database for station/object 2E1HJE-10. If no packets are shown the sender has not sent any weather packets the latest 10 day(s).
| Time | Temp. | Humidity | Pressure | Rain* | Wind** | Luminosity | Snow |
|---|---|---|---|---|---|---|---|
| 1777633707 | 20° C | 41% | 1021.1 hPa | 0 mm | - | - | - |
| 1777633108 | 19.44° C | 41% | 1021.2 hPa | 0 mm | - | - | - |
| 1777632507 | 19.44° C | 41% | 1021.2 hPa | 0 mm | - | - | - |
| 1777631907 | 18.89° C | 42% | 1021.4 hPa | 0 mm | - | - | - |
| 1777631307 | 18.89° C | 42% | 1021.4 hPa | 0 mm | - | - | - |
| 1777630707 | 18.89° C | 42% | 1021.4 hPa | 0 mm | - | - | - |
| 1777630108 | 18.33° C | 42% | 1021.4 hPa | 0 mm | - | - | - |
| 1777629508 | 18.33° C | 43% | 1021.4 hPa | 0 mm | - | - | - |
| 1777628907 | 18.33° C | 43% | 1021.4 hPa | 0 mm | - | - | - |
| 1777628307 | 17.78° C | 43% | 1021.4 hPa | 0 mm | - | - | - |
| 1777627707 | 17.22° C | 43% | 1021.4 hPa | 0 mm | - | - | - |
| 1777627107 | 17.22° C | 43% | 1021.4 hPa | 0 mm | - | - | - |
| 1777626507 | 16.67° C | 43% | 1021.4 hPa | 0 mm | - | - | - |
| 1777625907 | 16.67° C | 45% | 1021.2 hPa | 0 mm | - | - | - |
| 1777625307 | 16.67° C | 45% | 1021.2 hPa | 0 mm | - | - | - |
| 1777624707 | 16.67° C | 45% | 1021.2 hPa | 0 mm | - | - | - |
| 1777624107 | 16.11° C | 45% | 1021.4 hPa | 0 mm | - | - | - |
| 1777622907 | 15.56° C | 45% | 1021.4 hPa | 0 mm | - | - | - |
| 1777622307 | 15° C | 53% | 1021.5 hPa | 0 mm | - | - | - |
| 1777621707 | 15° C | 53% | 1021.5 hPa | 0 mm | - | - | - |
| 1777621107 | 14.44° C | 52% | 1021.8 hPa | 0 mm | - | - | - |
| 1777620509 | 13.33° C | 52% | 1021.8 hPa | 0 mm | - | - | - |
| 1777619907 | 13.33° C | 52% | 1021.8 hPa | 0 mm | - | - | - |
| 1777618707 | 12.22° C | 59% | 1021.6 hPa | 0 mm | - | - | - |
| 1777618110 | 12.22° C | 59% | 1021.6 hPa | 0 mm | - | - | - |
* Rain latest hour (hover to see other rain measurements)
** Current wind speed in m/s (hover to see current wind gust speed)